TITAN 3C TRANSTAGE DEB, 8832

Orbit data source: Space-Track

TITAN 3C TRANSTAGE DEB, 8832 is space debris in GEO originally from a launch on Mon, 15 Mar 1976 UTC launched from the Air Force Eastern Test Range (AFETR). Debris objects in space refer to the collection of defunct objects orbiting the Earth. Examples of debris include non-operational satellites, rocket bodies, and fragments generated from explosions, collisions, or faulty payload assembly.

Not visible in the next 10 days
Identifier
8832, 1976-023J
Orbit
GEO
Last TLE update
15 hours ago
Origin
Manufacturer
TRW
Mission
LES 9 operational debris"
Bus & Motor
Unknown
Mass
~100 kg wet, ~100 kg dry
Launch date (UTC)
1976-03-15 (49 years ago)
Launch vehicle
Unknown
Launch site
Air Force Eastern Test Range (AFETR)
Object type
Payload
Rocket body
Debris
Shape & HBR
Unknown
Radar Cross Section
Medium (>0.1 m² and <1 m²)

Expand to show TLE details & history

TLE from 15 hours ago
0 TITAN 3C TRANSTAGE DEB
1  8832U 76023J   25183.88533589 -.00000303  00000-0  00000+0 0  9993
2  8832  21.1358  47.1259 0139748  88.4290 273.7052  0.98261809114166
Epoch: 2025-07-02T21:14Z
TLE epoch observation values (Epoch: 2025-07-02T21:14:53.02Z)
Latitude
0.18488°
Longitude
167.74694°
Altitude
36,326.443 km
Speed
3.056 km/s
True Right ascension
03h 10m 30s
True Declination
0° 11' 05"
Sunlit
Object was in daylight at epoch
Visualization orbit readout
Latitude
-15.14007°
Longitude
31.58696°
Altitude
36,804.273 km
Speed
3.022 km/s
Apparent Right ascension
17h 39m 07s
Apparent Declination
-20° 02' 18"
Sunlit
Object is in daylight
Visualization observer readout
Local Sidereal Time
00:09:45
Azimuth
258.913° W
Elevation
-18.416°
Doppler factor
1
Orbital elements
Apogee altitude
36,957.767 km
Perigee altitude
35,763.239 km
Semi-major axis
42,738.64 km
Eccentricity
0.01397
Inclination
21.1358°
RAAN
47.1259°
Arg. of periapsis
88.429°
True anomaly
Unknown
Mean anomaly
273.7052°
Eccentric anomaly
Unknown
Mean motion
0.24565 °/min
Orbital period
1,465.52 mins
BSTAR
0
Loading historical data...
8832 neighbors
Loading maneuver chart data...
Loading SW <> Apogee altitude chart data...
Loading historical data...
Loading historical data...
Loading historical data...
Loading historical data...
Loading historical data...
Loading historical data...
Loading historical data...

TITAN 3C TRANSTAGE DEB Visibility

Observer location: undefined°, undefined°

TITAN 3C TRANSTAGE DEB is likely not visible in the next few days
Span
Click to sort rows by Start time (UTC) header in descending order
Start Az.
Max El. time (UTC)
Max El. Az.
Max El.
End time (UTC)
End Az.
|